Torna al catalogo

SHARJAHSAT-1

AttivoScienzaSSO
NORAD 55104·PAYLOAD·🇦🇪 UAE

Lanciato Jan 3, 2023 da Cape Canaveral Space Force Station

Loading…

Prossimi Passaggi (prossime 24 ore)

TLE

AggiornatoSource: Space-Track

Epoca: Sep 14, 2026, 14:46 UTC

1 55104U 23001CZ  26257.61543237  .00020907  00000-0  34405-3 0  9991
2 55104  97.3059 327.7794 0006631 131.2101 228.9725 15.52354370206350

Traccia SHARJAHSAT-1 in tempo reale con AllMySat

Download on the App Store